Tracking 28125 objects as of 3-Oct-2023
HD Live streaming from Space Station
objects crossing your sky now

OPS 5805

Track OPS 5805 now!
OPS 5805 is classified as:


NORAD ID: 12093
Int'l Code: 1980-100A
Perigee: 1,901.6 km
Apogee: 38,530.8 km
Inclination: 64.0 °
Period: 719.1 minutes
Semi major axis: 26587 km
RCS: Unknown
Launch date: December 13, 1980
Source: United States (US)
Launch site: AIR FORCE WESTERN TEST RANGE (AFWTR)
Your satellite tracking list
Your tracking list is empty




NASA's NSSDC Master Catalog

Two Line Element Set (TLE):
1 12093U 80100A   23274.05615747 -.00000952  00000-0  00000-0 0  9994
2 12093  63.9967 299.2494 6888514 274.7636  16.0802  2.00259886 32294
Source of the keplerian elements: AFSPC